Tracking 19279 objects as of 14-Nov-2018
HD Live streaming from Space Station
objects crossing your sky now

OPS 9333 (IDSCS 18)

Track OPS 9333 (IDSCS 18) now!
OPS 9333 (IDSCS 18) is classified as:


NORAD ID: 2864
Int'l Code: 1967-066C
Perigee: 33,059.5 km
Apogee: 33,582.9 km
Inclination: 3.9 °
Period: 1,311.6 minutes
Semi major axis: 39692 km
RCS: 0.1584 m2 (medium)
Launch date: July 1, 1967
Source: United States (US)
Launch site: AIR FORCE EASTERN TEST RANGE (AFETR)
aabbcc
Your satellite tracking list
Your tracking list is empty




NASA's NSSDC Master Catalog

Two Line Element Set (TLE):
1  2864U 67066C   18317.25257646 -.00000069 +00000-0 +00000-0 0  9998
2  2864 003.9339 284.3575 0065929 353.4422 188.9074 01.09785498101096
Source of the keplerian elements: AFSPC